Tracking 33404 objects as of 6-Mar-2026
HD Live streaming from Space Station
objects crossing your sky now

STARLINK-35627

Track STARLINK-35627 now!
10-day predictions
STARLINK-35627 is classified as:


NORAD ID: 66172
Int'l Code: 2025-240AC
Perigee: 481.4 km
Apogee: 483.1 km
Inclination: 53.2 °
Period: 94.1 minutes
Semi major axis: 6853 km
RCS: Unknown
Launch date: October 25, 2025
Source: United States (US)
Launch site: AIR FORCE EASTERN TEST RANGE (AFETR)
Your satellite tracking list
Your tracking list is empty




NASA's NSSDC Master Catalog

Two Line Element Set (TLE):
1 66172U 25240AC  26065.26427737  .00020939  00000-0  71623-3 0  9997
2 66172  53.1585  78.7320 0001224  89.7035 270.4106 15.30239766 21464
Source of the keplerian elements: AFSPC